Location: Chakepay
(13.3931°S, 72.1925°W)
Time: 06:19:55
(UTC+00:00)

ASTEX 1 - Pass Details

Date: 15 November 2019
Orbit: 721 x 743 km, 92.7° (Epoch: 10 December)

Event Time Altitude Azimuth Distance (km) Brightness Sun altitude
Rises 09:27:24 0° 169° (S) 3,149 7.2 -10.9°
Reaches altitude 10° 09:29:43 10° 166° (SSE) 2,225 6.4 -10.3°
Maximum altitude 09:34:36 66° 84° (E) 794 3.9 -9.2°
Drops below altitude 10° 09:39:28 10° 2° (N) 2,217 5.7 -8.1°
Sets 09:41:46 0° 359° (N) 3,137 6.4 -7.6°
